This is the latest recevied weather packets stored in our database for station/object NK7E-2. If no packets are shown the sender has not sent any weather packets the latest 10 day(s).
| Time | Temp. | Humidity | Pressure | Rain* | Wind** | Luminosity | Snow |
|---|---|---|---|---|---|---|---|
| 1777518317 | 22.22° C | 14% | 1020.6 hPa | 0 mm | - | - | - |
| 1777517718 | 22.78° C | 14% | 1020.6 hPa | 0 mm | - | - | - |
| 1777517117 | 22.78° C | 13% | 1020 hPa | 0 mm | - | - | - |
| 1777516517 | 23.33° C | 13% | 1020.1 hPa | 0 mm | - | - | - |
| 1777515917 | 23.33° C | 13% | 1019.9 hPa | 0 mm | - | - | - |
| 1777515317 | 23.89° C | 13% | 1019.9 hPa | 0 mm | - | - | - |
| 1777514717 | 23.89° C | 12% | 1019.9 hPa | 0 mm | - | - | - |
| 1777514117 | 23.89° C | 12% | 1019.9 hPa | 0 mm | - | - | - |
| 1777513517 | 23.89° C | 11% | 1019.6 hPa | 0 mm | - | - | - |
| 1777512917 | 24.44° C | 11% | 1019.9 hPa | 0 mm | - | - | - |
| 1777511717 | 25° C | 10% | 1020.1 hPa | 0 mm | - | - | - |
| 1777511117 | 25° C | 10% | 1020.1 hPa | 0 mm | - | - | - |
| 1777510517 | 25° C | 9% | 1020.3 hPa | 0 mm | - | - | - |
| 1777509317 | 25.56° C | 9% | 1020.3 hPa | 0 mm | - | - | - |
| 1777508717 | 25.56° C | 8% | 1020.2 hPa | 0 mm | - | - | - |
| 1777508117 | 25.56° C | 8% | 1020.6 hPa | 0 mm | - | - | - |
| 1777507517 | 26.11° C | 8% | 1020.8 hPa | 0 mm | - | - | - |
| 1777506317 | 26.67° C | 8% | 1020.8 hPa | 0 mm | - | - | - |
| 1777500317 | 26.67° C | 11% | 1021.6 hPa | 0 mm | - | - | - |
| 1777497317 | 26.11° C | 11% | 1022.3 hPa | 0 mm | - | - | - |
| 1777494317 | 26.67° C | 10% | 1023.2 hPa | 0 mm | - | - | - |
| 1777493717 | 26.11° C | 11% | 1023.4 hPa | 0 mm | - | - | - |
| 1777493117 | 26.11° C | 11% | 1023.3 hPa | 0 mm | - | - | - |
| 1777492517 | 26.67° C | 10% | 1023.4 hPa | 0 mm | - | - | - |
| 1777491317 | 25.56° C | 11% | 1023.3 hPa | 0 mm | - | - | - |
* Rain latest hour (hover to see other rain measurements)
** Current wind speed in m/s (hover to see current wind gust speed)